Temp
-14 -14 -14 -14 -14 -14 -14 -14 -15 -15 -15 -15 -15 -14 -14 -14 -14 -14 -14 -14 -14 -14 -14 -14 -14 -14 -14 -14 -14 -14 -14 -14 -14 -14 -14 -14 -14 -14 -14 -14 -14 -14
-14 -13 -14 -14 -14 -14 -14 -14 -15 -15 -15 -15 -15 -14 -14 -14 -14 -14 -14 -14 -14 -14 -14 -14 -14 -14 -14 -14 -14 -14 -14 -14 -14 -14 -14 -14 -14 -14 -14 -14 -14 -14
-14 -14 -14 -14 -14 -14 -14 -14 -15 -15 -15 -15 -14 -14 -14 -14 -14 -14 -14 -14 -14 -14 -14 -14 -14 -14 -14 -14 -14 -14 -14 -14 -14 -14 -14 -14 -14 -14 -14 -14 -14 -14
-14 -14 -14 -13 -14 -14 -14 -14 -15 -15 -15 -14 -14 -14 -15 -15 -14 -14 -14 -14 -14 -14 -14 -14 -14 -14 -14 -14 -14 -14 -14 -14 -14 -14 -14 -14 -14 -14 -14 -14 -14 -14
-14 -13 -13 -13 -14 -14 -14 -15 -15 -15 -15 -15 -14 -14 -15 -15 -15 -15 -14 -14 -14 -14 -14 -14 -14 -14 -14 -14 -14 -14 -14 -14 -14 -14 -14 -14 -14 -14 -14 -14 -14 -14
-14 -14 -13 -13 -14 -15 -15 -15 -15 -15 -15 -15 -14 -14 -15 -15 -15 -15 -14 -14 -14 -14 -14 -14 -14 -14 -14 -14 -14 -14 -14 -14 -14 -14 -14 -14 -14 -14 -14 -14 -14 -14
-14 -14 -14 -14 -14 -14 -15 -15 -15 -15 -15 -15 -15 -14 -15 -15 -15 -15 -15 -15 -14 -14 -14 -14 -14 -14 -14 -14 -14 -14 -14 -14 -14 -14 -14 -14 -14 -14 -14 -14 -14 -14
-14 -14 -14 -14 -14 -14 -14 -15 -15 -15 -16 -16 -15 -15 -15 -15 -15 -15 -15 -15 -15 -14 -14 -14 -14 -14 -14 -14 -14 -14 -14 -14 -14 -14 -14 -14 -14 -14 -14 -14 -14 -14
-14 -14 -14 -14 -14 -14 -14 -15 -15 -15 -16 -16 -15 -15 -15 -15 -16 -16 -15 -15 -15 -14 -14 -14 -14 -14 -14 -14 -14 -14 -14 -14 -14 -14 -14 -14 -14 -14 -14 -14 -14 -14
-14 -14 -14 -14 -14 -14 -14 -15 -15 -15 -15 -15 -15 -15 -15 -15 -16 -16 -16 -16 -15 -14 -14 -14 -14 -14 -14 -14 -14 -14 -14 -14 -14 -14 -14 -14 -14 -14 -14 -14 -14 -14
-15 -14 -14 -14 -14 -14 -14 -15 -15 -15 -15 -15 -15 -16 -16 -15 -15 -16 -16 -16 -15 -15 -14 -14 -14 -14 -14 -14 -14 -14 -14 -14 -14 -14 -14 -14 -14 -14 -14 -14 -14 -14
-15 -15 -14 -14 -14 -14 -15 -15 -15 -15 -15 -15 -15 -16 -16 -15 -15 -15 -16 -16 -15 -15 -14 -14 -14 -15 -14 -14 -14 -14 -14 -14 -14 -14 -14 -14 -14 -14 -14 -14 -14 -14
-15 -15 -15 -15 -15 -15 -15 -15 -15 -15 -15 -15 -15 -15 -15 -15 -15 -15 -15 -15 -15 -15 -14 -14 -14 -14 -14 -14 -14 -14 -14 -14 -14 -15 -15 -15 -15 -15 -15 -15 -14 -14
-15 -15 -15 -15 -15 -15 -15 -15 -15 -15 -15 -15 -15 -15 -15 -16 -16 -15 -15 -15 -15 -15 -14 -14 -14 -14 -14 -14 -14 -14 -14 -15 -15 -15 -15 -15 -15 -15 -15 -15 -15 -15
-16 -15 -15 -15 -15 -15 -15 -15 -15 -15 -16 -15 -15 -15 -15 -15 -16 -16 -15 -15 -15 -15 -15 -14 -14 -14 -14 -14 -14 -15 -15 -15 -15 -15 -15 -15 -15 -15 -15 -15 -15 -15
-16 -16 -15 -15 -15 -15 -15 -15 -15 -16 -16 -16 -15 -15 -15 -15 -15 -16 -15 -15 -15 -15 -15 -15 -14 -14 -14 -14 -14 -15 -15 -15 -15 -15 -15 -15 -15 -15 -15 -15 -15 -15
-16 -16 -16 -15 -15 -15 -15 -15 -15 -16 -16 -16 -16 -16 -15 -15 -15 -15 -15 -15 -15 -15 -15 -15 -15 -15 -15 -15 -15 -15 -15 -15 -15 -15 -15 -15 -15 -15 -15 -15 -15 -15
-16 -16 -16 -16 -16 -15 -15 -15 -15 -16 -15 -15 -15 -15 -16 -16 -15 -15 -15 -15 -15 -15 -15 -15 -15 -15 -15 -15 -15 -15 -15 -15 -15 -15 -15 -15 -15 -15 -15 -15 -15 -15
-16 -16 -16 -16 -16 -16 -16 -16 -16 -16 -16 -15 -15 -15 -16 -16 -15 -15 -15 -15 -15 -15 -15 -15 -15 -15 -15 -15 -15 -15 -15 -15 -15 -15 -16 -16 -16 -16 -16 -16 -16 -16
-16 -16 -16 -16 -16 -16 -16 -16 -16 -15 -15 -15 -15 -15 -15 -16 -16 -15 -15 -15 -15 -15 -15 -16 -16 -16 -16 -15 -15 -15 -15 -15 -15 -15 -16 -16 -16 -16 -16 -16 -16 -16
-17 -16 -16 -16 -16 -16 -16 -16 -16 -16 -16 -15 -15 -15 -15 -15 -15 -15 -15 -15 -15 -15 -16 -16 -16 -16 -16 -16 -15 -15 -15 -15 -15 -16 -16 -16 -16 -16 -16 -16 -16 -16
-17 -17 -16 -16 -16 -16 -16 -16 -16 -16 -16 -16 -16 -16 -15 -15 -15 -15 -15 -15 -15 -15 -15 -16 -16 -16 -16 -16 -16 -15 -15 -15 -16 -16 -16 -16 -16 -16 -16 -16 -16 -16
-17 -17 -17 -16 -16 -16 -16 -16 -16 -16 -16 -16 -16 -16 -15 -15 -15 -15 -15 -15 -15 -15 -15 -15 -15 -16 -16 -16 -16 -16 -16 -16 -16 -16 -16 -16 -16 -16 -16 -16 -16 -16
-17 -17 -17 -17 -16 -16 -16 -16 -16 -16 -16 -16 -16 -16 -15 -15 -15 -15 -15 -15 -15 -15 -15 -15 -15 -15 -15 -16 -16 -16 -16 -16 -16 -16 -16 -16 -16 -17 -17 -17 -17 -17
-17 -17 -17 -16 -16 -16 -16 -16 -16 -16 -16 -16 -16 -16 -15 -15 -15 -15 -15 -15 -15 -15 -15 -15 -15 -15 -15 -15 -16 -16 -16 -16 -16 -16 -16 -16 -17 -17 -17 -17 -17 -17
-17 -17 -17 -17 -16 -16 -16 -17 -16 -16 -16 -16 -16 -16 -15 -15 -15 -15 -15 -15 -15 -15 -15 -15 -15 -15 -15 -15 -15 -15 -16 -16 -16 -16 -16 -16 -16 -17 -17 -17 -17 -17
Height
5761 5759 5758 5757 5756 5757 5758 5760 5762 5762 5762 5763 5764 5764 5765 5766 5767 5767 5767 5768 5769 5771 5772 5774 5775 5777 5778 5779 5780 5781 5781 5782 5783 5783 5784 5785 5786 5787 5787 5788 5789 5790
5755 5755 5754 5752 5751 5751 5752 5756 5759 5760 5760 5761 5761 5761 5763 5765 5765 5764 5764 5765 5767 5768 5769 5771 5772 5774 5775 5777 5778 5779 5780 5780 5781 5782 5782 5783 5784 5785 5786 5787 5788 5788
5750 5750 5749 5748 5746 5746 5749 5753 5755 5757 5758 5759 5758 5758 5761 5762 5762 5761 5761 5762 5764 5765 5767 5769 5770 5771 5772 5774 5775 5776 5777 5778 5779 5780 5781 5781 5782 5783 5783 5784 5785 5786
5746 5745 5745 5744 5743 5743 5745 5748 5750 5752 5755 5756 5755 5756 5758 5760 5760 5760 5759 5760 5762 5763 5765 5767 5768 5769 5770 5771 5772 5774 5775 5776 5777 5777 5778 5779 5780 5780 5781 5782 5782 5783
5740 5741 5741 5740 5740 5740 5741 5743 5745 5748 5751 5753 5753 5753 5755 5757 5758 5758 5758 5758 5759 5761 5763 5764 5766 5767 5768 5769 5770 5771 5772 5773 5774 5775 5776 5777 5777 5778 5779 5779 5780 5781
5735 5735 5735 5735 5736 5737 5738 5740 5741 5744 5747 5749 5750 5750 5752 5754 5755 5756 5755 5756 5757 5758 5760 5762 5763 5765 5765 5766 5767 5768 5769 5770 5771 5773 5774 5774 5775 5776 5776 5777 5777 5778
5730 5731 5731 5731 5731 5733 5734 5736 5738 5741 5743 5746 5747 5748 5750 5752 5753 5753 5753 5754 5755 5756 5757 5759 5761 5762 5763 5763 5764 5765 5766 5768 5769 5770 5771 5772 5773 5773 5774 5774 5775 5775
5726 5726 5727 5727 5727 5728 5730 5732 5735 5737 5740 5743 5745 5746 5748 5750 5750 5751 5751 5751 5752 5754 5755 5756 5758 5759 5760 5761 5762 5763 5764 5765 5766 5768 5769 5770 5770 5771 5771 5772 5772 5773
5722 5722 5722 5722 5723 5724 5726 5729 5732 5734 5737 5740 5742 5744 5746 5747 5747 5748 5749 5750 5750 5751 5752 5754 5755 5756 5757 5758 5759 5760 5761 5763 5764 5765 5766 5767 5767 5768 5769 5769 5770 5770
5718 5718 5718 5718 5719 5721 5724 5726 5729 5731 5734 5737 5739 5741 5743 5744 5745 5745 5747 5748 5748 5749 5750 5751 5752 5753 5754 5755 5756 5757 5759 5760 5762 5763 5763 5764 5765 5765 5766 5767 5767 5768
5716 5715 5714 5715 5717 5719 5722 5724 5726 5729 5732 5734 5736 5737 5739 5741 5743 5743 5744 5745 5746 5747 5748 5749 5750 5751 5751 5752 5753 5755 5756 5758 5759 5760 5761 5761 5762 5762 5763 5764 5764 5765
5714 5713 5712 5713 5716 5718 5720 5723 5725 5728 5730 5732 5733 5734 5736 5739 5741 5742 5742 5743 5744 5746 5747 5747 5748 5749 5749 5750 5751 5752 5753 5755 5756 5757 5757 5758 5759 5759 5760 5761 5761 5762
5712 5711 5711 5712 5714 5716 5718 5721 5724 5726 5728 5729 5730 5731 5734 5737 5739 5740 5740 5740 5742 5744 5745 5745 5746 5747 5748 5749 5749 5750 5751 5751 5752 5753 5754 5755 5755 5756 5757 5757 5758 5759
5711 5710 5710 5711 5713 5714 5716 5719 5721 5723 5725 5727 5728 5730 5732 5734 5736 5737 5737 5737 5739 5741 5742 5743 5744 5744 5745 5746 5747 5747 5748 5748 5749 5750 5750 5751 5752 5752 5753 5754 5755 5756
5710 5709 5709 5710 5712 5713 5715 5717 5719 5720 5722 5725 5727 5728 5730 5732 5733 5735 5735 5735 5735 5737 5739 5740 5740 5741 5742 5743 5744 5744 5745 5746 5746 5747 5747 5748 5749 5749 5750 5751 5753 5753
5709 5708 5707 5708 5710 5712 5713 5715 5716 5717 5719 5722 5724 5726 5727 5729 5731 5732 5733 5733 5733 5734 5736 5737 5738 5738 5739 5740 5740 5741 5742 5743 5744 5744 5744 5745 5746 5747 5748 5749 5750 5750
5708 5708 5707 5707 5708 5710 5712 5713 5714 5715 5716 5719 5721 5723 5725 5726 5727 5728 5729 5730 5730 5731 5733 5734 5735 5736 5736 5737 5737 5737 5738 5740 5740 5741 5742 5742 5743 5744 5744 5745 5746 5747
5707 5707 5706 5706 5706 5707 5709 5711 5712 5713 5714 5716 5718 5720 5721 5722 5724 5724 5725 5726 5727 5728 5729 5731 5733 5734 5734 5734 5734 5734 5735 5736 5737 5738 5739 5739 5740 5741 5741 5742 5743 5744
5706 5706 5705 5705 5705 5705 5707 5708 5709 5710 5712 5713 5715 5716 5717 5719 5720 5721 5721 5722 5723 5725 5726 5728 5729 5730 5731 5731 5731 5731 5732 5732 5734 5735 5735 5736 5737 5737 5738 5739 5740 5741
5705 5704 5704 5704 5704 5704 5704 5705 5706 5708 5709 5710 5712 5713 5714 5715 5716 5717 5718 5718 5719 5720 5722 5723 5725 5726 5726 5727 5727 5728 5728 5729 5730 5731 5732 5732 5733 5734 5734 5735 5736 5738
5703 5702 5702 5701 5701 5702 5702 5702 5703 5705 5706 5707 5708 5709 5710 5711 5712 5713 5713 5714 5715 5716 5717 5719 5720 5721 5721 5723 5723 5724 5725 5725 5726 5727 5728 5728 5729 5730 5731 5732 5733 5734
5700 5700 5699 5699 5699 5699 5699 5700 5700 5701 5702 5703 5704 5705 5706 5707 5707 5708 5709 5710 5711 5712 5712 5714 5715 5716 5717 5718 5719 5720 5721 5721 5722 5723 5724 5725 5725 5726 5727 5728 5729 5730
5697 5697 5697 5696 5696 5695 5696 5696 5697 5697 5698 5699 5699 5700 5701 5702 5703 5704 5704 5706 5707 5708 5708 5709 5710 5712 5712 5714 5715 5716 5716 5717 5718 5719 5720 5720 5721 5722 5723 5724 5724 5725
5694 5694 5693 5693 5693 5692 5692 5693 5693 5693 5693 5694 5695 5695 5696 5697 5698 5699 5700 5701 5702 5703 5704 5705 5706 5707 5708 5709 5710 5711 5712 5713 5714 5715 5715 5716 5717 5718 5719 5719 5720 5721
5690 5689 5689 5689 5690 5689 5689 5689 5689 5689 5689 5690 5690 5691 5691 5692 5693 5694 5695 5696 5697 5698 5699 5701 5702 5703 5704 5704 5705 5706 5707 5708 5709 5710 5711 5712 5713 5714 5714 5715 5716 5717
5686 5685 5685 5685 5685 5686 5686 5686 5686 5685 5685 5685 5686 5687 5687 5687 5688 5689 5690 5691 5691 5692 5694 5696 5697 5698 5699 5700 5700 5701 5701 5703 5704 5705 5706 5707 5708 5709 5710 5710 5711 5712
Wind_Speed
28 32 34 34 37 39 36 32 30 27 21 19 21 23 24 25 25 25 25 24 22 21 20 19 18 17 16 16 16 16 15 14 14 14 15 15 16 17 19 19 19 20
29 31 33 37 39 40 39 34 31 29 23 19 21 22 24 25 26 26 25 23 22 20 19 19 18 17 16 16 15 15 15 15 15 15 16 16 16 17 19 19 20 21
29 30 30 33 33 35 36 34 33 32 25 21 22 22 24 26 27 26 24 23 21 20 19 19 18 17 16 16 16 15 15 15 15 15 16 16 17 17 18 20 21 21
29 29 28 29 29 31 34 33 35 35 27 23 24 23 25 27 27 26 24 22 21 20 19 18 18 18 17 17 17 16 16 15 15 15 16 17 17 18 18 19 20 20
28 29 29 29 29 32 34 33 35 34 28 24 25 25 26 26 26 26 24 23 21 20 19 19 19 19 18 18 18 17 16 16 16 17 17 18 18 19 19 20 20 20
25 27 29 29 29 31 33 33 34 32 27 26 27 27 28 27 26 26 25 24 22 21 21 21 21 20 20 20 19 18 18 18 18 18 18 19 19 20 20 21 21 21
25 26 28 29 29 29 31 32 33 31 27 27 28 29 29 28 27 28 27 25 23 23 22 23 23 22 21 20 20 19 19 19 19 19 19 19 19 20 21 21 22 22
26 26 28 30 30 30 30 30 32 30 27 27 28 30 30 29 29 29 27 26 25 24 24 24 23 22 21 20 20 20 20 20 19 19 19 19 19 20 20 21 21 21
24 25 27 29 29 28 28 29 30 29 27 27 28 29 31 31 30 29 27 27 26 26 26 25 23 22 22 21 20 20 20 20 19 20 20 20 20 20 20 20 20 20
21 22 25 27 27 26 27 29 30 28 26 27 29 29 31 33 31 29 28 27 27 27 26 25 23 23 23 22 21 21 20 20 20 20 20 21 20 20 20 20 20 20
18 17 18 20 23 26 28 29 30 27 25 27 30 31 32 34 33 30 28 28 27 27 26 25 24 24 24 23 22 21 20 20 20 20 21 21 21 21 20 21 21 21
17 15 14 16 22 26 28 30 30 27 26 27 30 32 32 32 32 31 29 28 27 27 26 25 25 25 24 23 22 21 20 20 19 19 20 20 20 21 21 21 21 21
17 17 17 18 22 26 28 30 28 25 26 29 31 32 31 30 30 30 29 27 27 26 26 26 25 25 23 23 22 21 20 19 19 18 18 19 20 21 21 22 22 22
16 17 19 20 21 25 28 29 26 24 26 29 30 30 30 30 31 30 28 26 25 25 26 26 26 25 24 23 22 22 21 20 19 19 19 19 20 20 21 22 22 23
17 15 18 22 22 23 28 28 25 25 27 28 28 29 29 30 29 28 26 25 25 26 27 27 27 26 25 24 23 23 22 21 20 20 20 20 20 21 21 22 23 23
19 15 14 22 24 23 26 28 27 27 28 28 27 27 28 29 28 26 26 26 25 25 26 27 28 27 27 26 25 24 23 22 22 21 21 21 21 22 22 23 23 24
20 16 11 17 24 25 26 27 27 28 29 28 28 27 28 29 28 27 28 28 26 26 26 28 29 29 28 28 27 25 24 23 23 22 22 21 22 23 23 23 24 24
20 18 13 11 18 23 25 26 27 28 29 29 29 29 30 30 30 29 29 28 27 26 27 28 29 30 30 29 28 27 25 24 24 23 23 22 23 23 24 24 25 25
19 19 17 14 13 17 21 24 26 27 29 29 30 31 32 34 34 33 31 29 28 28 28 29 30 32 31 30 30 29 27 25 25 25 24 24 24 24 25 25 26 26
18 19 20 18 16 16 17 20 23 26 27 28 28 29 30 33 36 37 36 35 35 34 32 30 31 33 34 32 32 31 29 27 26 26 26 25 26 26 27 27 27 28
19 20 21 21 20 20 19 20 22 24 26 27 27 27 28 30 32 35 37 38 37 36 34 31 31 33 35 35 34 33 31 29 28 27 27 27 27 27 28 29 29 29
20 20 21 23 23 23 23 22 22 24 25 27 28 29 29 30 30 31 32 33 33 33 33 31 31 32 34 35 35 35 33 31 29 28 28 28 27 28 29 30 31 31
22 21 22 23 25 26 25 24 24 25 25 25 27 29 30 31 31 31 31 31 31 32 31 30 30 31 33 35 36 37 35 34 32 30 30 29 29 29 30 31 32 33
24 23 22 23 25 27 27 26 26 27 26 25 25 27 29 31 32 32 33 33 33 33 33 32 32 32 33 34 36 37 37 36 34 33 32 31 30 30 31 31 32 34
26 25 24 24 25 27 28 28 28 29 29 27 26 27 29 30 31 31 32 34 37 37 36 36 35 34 34 35 36 38 38 38 37 35 34 33 32 32 32 33 33 33
27 27 26 26 25 26 28 29 29 30 30 30 29 28 28 30 32 32 32 36 41 42 39 39 38 38 38 38 40 41 40 39 38 37 36 36 35 34 34 34 34 33
Wind_Direction
272 270 268 266 262 258 257 253 248 246 243 237 236 240 244 245 241 239 238 236 234 235 236 239 241 242 241 241 244 247 250 250 250 249 250 250 250 250 250 251 250 250
277 275 270 267 264 257 253 251 245 245 246 236 233 239 243 244 240 236 236 235 234 233 232 233 234 234 235 237 241 246 248 248 247 247 248 250 250 251 252 252 252 251
272 275 273 269 264 252 249 249 243 244 248 236 232 238 241 242 239 234 233 233 232 230 229 228 229 229 231 234 238 241 243 244 244 245 246 247 248 249 251 252 252 252
265 266 269 269 261 246 244 244 240 241 242 234 231 236 238 240 237 233 231 229 228 228 225 223 224 226 228 231 235 237 239 241 242 243 245 245 246 247 250 252 253 254
262 260 261 263 257 246 243 241 237 237 236 232 232 234 236 237 234 231 229 225 225 223 221 221 222 224 227 229 233 235 237 239 240 242 244 245 246 247 248 251 254 256
262 256 256 258 255 248 246 243 236 233 233 233 232 231 232 232 229 228 226 223 222 220 219 221 223 226 229 230 232 233 236 238 240 242 244 245 245 245 246 249 252 254
262 256 255 258 254 249 249 244 234 231 234 233 230 230 229 227 226 225 223 222 221 220 221 224 226 228 229 229 231 233 235 237 239 242 243 243 243 244 245 247 249 251
262 256 256 256 253 249 246 239 230 230 232 229 226 229 228 225 225 225 222 220 220 222 225 226 227 229 229 229 229 230 233 235 237 240 241 241 242 243 245 247 248 249
262 257 255 253 249 244 239 230 225 226 226 222 221 226 228 226 225 227 225 222 221 223 226 227 226 227 228 228 227 228 231 232 234 236 238 240 242 244 246 246 246 246
264 260 257 251 241 233 229 223 220 221 222 218 217 222 227 228 226 226 227 226 225 225 225 225 225 225 226 226 226 228 230 232 234 237 239 241 243 245 246 245 244 243
269 264 258 246 228 221 224 220 217 220 222 217 214 218 225 228 227 226 227 228 227 225 225 224 224 224 224 225 226 228 231 234 237 240 242 243 244 245 244 243 242 242
271 259 253 240 222 219 221 216 215 222 223 217 214 216 221 227 229 229 228 229 228 226 225 225 224 224 224 225 226 228 230 233 237 240 242 243 244 243 242 240 240 241
273 254 244 235 226 222 215 211 217 225 224 218 216 215 217 221 228 231 230 230 231 230 229 228 225 225 226 227 228 228 229 232 235 238 240 240 240 239 239 239 240 242
283 261 239 229 226 219 213 214 221 225 222 219 217 215 215 217 224 230 231 231 233 234 233 231 228 227 228 229 229 229 231 232 233 235 236 235 235 236 237 239 241 243
294 277 239 223 222 219 218 221 223 222 222 222 220 218 216 217 223 231 233 233 233 234 234 232 229 228 229 230 230 231 234 235 234 234 234 234 234 235 237 239 241 244
297 293 245 220 218 221 223 226 224 221 221 222 222 222 220 219 223 229 233 233 232 234 236 235 232 231 230 230 230 232 236 237 237 236 235 235 235 236 238 239 240 242
294 296 270 222 216 220 224 227 227 224 223 223 225 226 225 223 224 226 229 232 232 233 236 238 237 236 234 233 231 232 235 238 240 240 240 239 237 237 238 239 239 239
290 291 286 247 224 221 222 227 230 228 225 226 227 229 229 227 225 227 230 232 231 232 236 240 241 241 239 238 236 234 235 237 240 242 243 242 241 240 240 239 239 238
285 285 282 268 246 231 225 227 231 230 229 230 232 233 233 231 230 232 232 232 233 238 243 245 245 244 244 243 240 237 235 236 238 241 242 243 243 242 242 241 239 238
276 278 277 270 257 246 236 232 232 232 233 233 234 236 235 233 234 236 237 240 244 249 252 252 248 246 245 245 243 240 237 235 236 239 241 242 243 243 243 243 242 241
272 270 271 270 263 255 247 242 238 237 237 236 234 235 236 237 237 239 241 243 246 248 249 249 248 247 246 245 244 243 240 237 237 238 241 242 243 244 245 245 245 244
273 268 266 266 266 261 256 250 246 244 244 242 239 237 237 239 240 240 242 243 243 244 245 244 245 247 246 244 243 243 242 240 238 239 241 244 246 247 248 247 246 246
272 268 264 262 263 263 260 256 252 251 251 249 246 242 239 239 239 240 243 245 243 243 243 243 243 246 248 246 243 242 242 241 240 240 241 244 247 249 250 250 248 247
272 269 265 262 260 261 261 258 256 256 256 255 252 248 244 241 240 241 245 247 245 244 245 246 247 248 249 249 246 244 243 243 241 241 241 243 245 248 251 252 252 250
270 271 268 264 260 259 259 257 256 256 257 256 255 253 249 244 242 242 244 247 248 247 248 250 251 250 250 251 249 246 244 244 243 242 242 242 243 245 248 250 252 252
266 269 270 268 264 260 257 256 255 255 256 256 255 255 253 249 246 244 245 247 247 246 247 249 251 251 251 252 252 249 245 243 243 242 242 242 242 243 244 246 248 250